Time,TemperatureF,DewpointF,PressureIn,WindDirection,WindDirectionDegrees,WindSpeedMPH,WindSpeedGustMPH,Humidity,HourlyPrecipIn,Conditions,Clouds,dailyrainin,SoftwareType,DateUTC
2013-06-29 00:11:00,57.3,56.0,29.59,WNW,290,5.0,7.0,96,0.00,,,0.00,weatherlink.com 1.10,2013-06-29 04:11:00,
2013-06-29 00:26:00,57.3,56.0,29.58,WNW,301,2.0,5.0,96,0.00,,,0.00,weatherlink.com 1.10,2013-06-29 04:26:00,
2013-06-29 00:41:00,57.4,56.0,29.58,WNW,284,2.0,5.0,96,0.00,,,0.00,weatherlink.com 1.10,2013-06-29 04:41:00,
2013-06-29 00:56:00,57.2,56.0,29.57,SSW,209,2.0,6.0,97,0.00,,,0.00,weatherlink.com 1.10,2013-06-29 04:56:00,
2013-06-29 01:11:00,57.1,56.0,29.56,WSW,252,3.0,8.0,97,0.00,,,0.00,weatherlink.com 1.10,2013-06-29 05:11:00,
2013-06-29 01:26:00,57.4,57.0,29.57,WNW,290,3.0,8.0,97,0.00,,,0.00,weatherlink.com 1.10,2013-06-29 05:26:00,
2013-06-29 01:41:00,57.6,57.0,29.56,NW,306,4.0,8.0,97,0.00,,,0.00,weatherlink.com 1.10,2013-06-29 05:41:00,
2013-06-29 01:56:00,57.6,57.0,29.55,NW,321,6.0,7.0,97,0.00,,,0.00,weatherlink.com 1.10,2013-06-29 05:56:00,
2013-06-29 02:11:00,57.6,57.0,29.55,NW,323,6.0,10.0,97,0.00,,,0.00,weatherlink.com 1.10,2013-06-29 06:11:00,
2013-06-29 02:26:00,57.5,57.0,29.55,WSW,248,5.0,11.0,97,0.00,,,0.00,weatherlink.com 1.10,2013-06-29 06:26:00,
2013-06-29 02:41:00,57.5,57.0,29.54,NW,314,4.0,9.0,97,0.00,,,0.00,weatherlink.com 1.10,2013-06-29 06:41:00,
2013-06-29 02:57:00,57.5,57.0,29.54,WNW,294,6.0,8.0,98,0.00,,,0.00,weatherlink.com 1.10,2013-06-29 06:57:00,
2013-06-29 03:12:00,57.3,57.0,29.54,WNW,298,4.0,7.0,98,0.00,,,0.00,weatherlink.com 1.10,2013-06-29 07:12:00,
2013-06-29 03:26:00,57.2,57.0,29.53,NW,323,1.0,9.0,98,0.00,,,0.00,weatherlink.com 1.10,2013-06-29 07:26:00,
2013-06-29 03:41:00,57.1,57.0,29.53,NW,315,4.0,9.0,98,0.00,,,0.00,weatherlink.com 1.10,2013-06-29 07:41:00,
2013-06-29 03:56:00,57.1,57.0,29.53,WNW,293,2.0,9.0,98,0.00,,,0.00,weatherlink.com 1.10,2013-06-29 07:56:00,
2013-06-29 04:11:00,57.1,56.0,29.53,NW,315,3.0,6.0,97,0.00,,,0.00,weatherlink.com 1.10,2013-06-29 08:11:00,
2013-06-29 04:26:00,56.9,56.0,29.53,NW,306,2.0,9.0,97,0.00,,,0.00,weatherlink.com 1.10,2013-06-29 08:26:00,
2013-06-29 04:41:00,56.9,56.0,29.53,NW,323,3.0,8.0,97,0.00,,,0.00,weatherlink.com 1.10,2013-06-29 08:41:00,
2013-06-29 04:56:00,57.0,56.0,29.53,WNW,294,5.0,7.0,97,0.00,,,0.00,weatherlink.com 1.10,2013-06-29 08:56:00,
2013-06-29 05:11:00,57.3,57.0,29.53,NW,315,7.0,9.0,97,0.00,,,0.00,weatherlink.com 1.10,2013-06-29 09:11:00,
2013-06-29 05:26:00,57.4,57.0,29.54,NW,318,0.0,13.0,97,0.00,,,0.00,weatherlink.com 1.10,2013-06-29 09:26:00,
2013-06-29 05:41:00,57.2,56.0,29.54,NNW,334,2.0,9.0,97,0.00,,,0.00,weatherlink.com 1.10,2013-06-29 09:41:00,
2013-06-29 05:56:00,57.0,56.0,29.55,NNW,338,5.0,5.0,97,0.00,,,0.00,weatherlink.com 1.10,2013-06-29 09:56:00,
2013-06-29 06:11:00,57.0,56.0,29.56,NW,311,5.0,6.0,97,0.00,,,0.00,weatherlink.com 1.10,2013-06-29 10:11:00,
2013-06-29 06:26:00,57.0,56.0,29.56,WNW,290,4.0,5.0,97,0.00,,,0.00,weatherlink.com 1.10,2013-06-29 10:26:00,
2013-06-29 06:41:00,57.1,56.0,29.56,NNW,344,0.0,5.0,97,0.00,,,0.00,weatherlink.com 1.10,2013-06-29 10:41:00,
2013-06-29 06:56:00,57.2,56.0,29.57,WSW,250,1.0,7.0,97,0.00,,,0.00,weatherlink.com 1.10,2013-06-29 10:56:00,
2013-06-29 07:11:00,57.1,57.0,29.57,NW,325,4.0,5.0,98,0.00,,,0.00,weatherlink.com 1.10,2013-06-29 11:11:00,
2013-06-29 07:26:00,56.9,56.0,29.57,NNW,333,0.0,5.0,98,0.00,,,0.00,weatherlink.com 1.10,2013-06-29 11:26:00,
2013-06-29 07:41:00,56.8,56.0,29.57,NW,311,0.0,3.0,98,0.00,,,0.00,weatherlink.com 1.10,2013-06-29 11:41:00,
2013-06-29 07:56:00,56.9,56.0,29.57,NNW,333,0.0,1.0,98,0.00,,,0.00,weatherlink.com 1.10,2013-06-29 11:56:00,
2013-06-29 08:11:00,56.9,56.0,29.58,NW,321,0.0,3.0,97,0.00,,,0.00,weatherlink.com 1.10,2013-06-29 12:11:00,
2013-06-29 08:26:00,57.0,56.0,29.59,NNW,330,1.0,3.0,97,0.00,,,0.00,weatherlink.com 1.10,2013-06-29 12:26:00,
2013-06-29 08:41:00,57.2,56.0,29.59,NNW,331,0.0,2.0,96,0.00,,,0.00,weatherlink.com 1.10,2013-06-29 12:41:00,
2013-06-29 08:56:00,57.8,57.0,29.59,NNE,32,0.0,3.0,96,0.00,,,0.00,weatherlink.com 1.10,2013-06-29 12:56:00,
2013-06-29 09:11:00,59.8,58.0,29.59,SSW,202,0.0,5.0,93,0.00,,,0.00,weatherlink.com 1.10,2013-06-29 13:11:00,
2013-06-29 09:26:00,61.5,58.0,29.59,NE,42,0.0,4.0,88,0.00,,,0.00,weatherlink.com 1.10,2013-06-29 13:26:00,
2013-06-29 09:41:00,62.0,58.0,29.58,East,92,0.0,2.0,87,0.00,,,0.00,weatherlink.com 1.10,2013-06-29 13:41:00,
2013-06-29 09:56:00,62.6,58.0,29.58,East,84,0.0,4.0,85,0.00,,,0.00,weatherlink.com 1.10,2013-06-29 13:56:00,
2013-06-29 10:11:00,63.0,59.0,29.59,East,97,1.0,3.0,85,0.00,,,0.00,weatherlink.com 1.10,2013-06-29 14:11:00,
2013-06-29 10:26:00,63.6,58.0,29.59,NE,41,0.0,3.0,82,0.00,,,0.00,weatherlink.com 1.10,2013-06-29 14:26:00,
2013-06-29 10:41:00,64.0,57.0,29.59,NW,320,2.0,7.0,78,0.00,,,0.00,weatherlink.com 1.10,2013-06-29 14:41:00,
2013-06-29 10:56:00,64.6,59.0,29.58,West,274,1.0,4.0,81,0.00,,,0.00,weatherlink.com 1.10,2013-06-29 14:56:00,
2013-06-29 11:11:00,64.1,56.0,29.59,NW,317,1.0,8.0,74,0.00,,,0.00,weatherlink.com 1.10,2013-06-29 15:11:00,
2013-06-29 11:27:00,65.3,57.0,29.59,NW,321,5.0,6.0,74,0.00,,,0.00,weatherlink.com 1.10,2013-06-29 15:27:00,
2013-06-29 11:42:00,65.6,57.0,29.59,SSW,202,2.0,7.0,73,0.00,,,0.00,weatherlink.com 1.10,2013-06-29 15:42:00,
2013-06-29 11:57:00,64.9,56.0,29.60,WNW,298,2.0,8.0,74,0.00,,,0.00,weatherlink.com 1.10,2013-06-29 15:57:00,
2013-06-29 12:12:00,65.7,57.0,29.59,WSW,257,9.0,9.0,73,0.00,,,0.00,weatherlink.com 1.10,2013-06-29 16:12:00,
2013-06-29 12:27:00,65.9,57.0,29.60,NW,313,2.0,7.0,72,0.00,,,0.00,weatherlink.com 1.10,2013-06-29 16:27:00,
2013-06-29 12:42:00,64.1,55.0,29.60,NW,305,3.0,13.0,71,0.00,,,0.00,weatherlink.com 1.10,2013-06-29 16:42:00,
2013-06-29 12:57:00,65.6,56.0,29.60,WSW,241,0.0,6.0,71,0.00,,,0.00,weatherlink.com 1.10,2013-06-29 16:57:00,
2013-06-29 13:12:00,67.8,56.0,29.60,East,95,3.0,8.0,65,0.00,,,0.00,weatherlink.com 1.10,2013-06-29 17:12:00,
2013-06-29 13:27:00,65.7,56.0,29.61,NE,44,2.0,6.0,70,0.00,,,0.00,weatherlink.com 1.10,2013-06-29 17:27:00,
2013-06-29 13:42:00,65.6,56.0,29.61,SW,219,5.0,5.0,71,0.00,,,0.00,weatherlink.com 1.10,2013-06-29 17:42:00,
2013-06-29 13:57:00,67.1,56.0,29.61,WNW,302,2.0,5.0,68,0.00,,,0.00,weatherlink.com 1.10,2013-06-29 17:57:00,
2013-06-29 14:12:00,66.8,57.0,29.61,NW,315,5.0,5.0,71,0.00,,,0.00,weatherlink.com 1.10,2013-06-29 18:12:00,
2013-06-29 14:27:00,66.7,57.0,29.60,NW,322,4.0,9.0,71,0.00,,,0.00,weatherlink.com 1.10,2013-06-29 18:27:00,
2013-06-29 14:42:00,65.8,57.0,29.60,SW,217,0.0,8.0,73,0.00,,,0.00,weatherlink.com 1.10,2013-06-29 18:42:00,
2013-06-29 14:57:00,65.7,56.0,29.60,NNW,328,1.0,4.0,72,0.00,,,0.00,weatherlink.com 1.10,2013-06-29 18:57:00,
2013-06-29 15:12:00,65.5,57.0,29.60,NNW,329,2.0,6.0,73,0.00,,,0.00,weatherlink.com 1.10,2013-06-29 19:12:00,
2013-06-29 15:27:00,66.3,57.0,29.60,South,186,0.0,8.0,71,0.00,,,0.00,weatherlink.com 1.10,2013-06-29 19:27:00,
2013-06-29 15:42:00,67.2,56.0,29.60,NNW,333,1.0,10.0,67,0.00,,,0.00,weatherlink.com 1.10,2013-06-29 19:42:00,
2013-06-29 15:57:00,67.3,56.0,29.60,East,87,5.0,5.0,67,0.00,,,0.00,weatherlink.com 1.10,2013-06-29 19:57:00,
2013-06-29 16:12:00,68.2,56.0,29.60,West,266,0.0,4.0,65,0.00,,,0.00,weatherlink.com 1.10,2013-06-29 20:12:00,
2013-06-29 16:27:00,68.2,55.0,29.60,NNE,33,1.0,7.0,63,0.00,,,0.00,weatherlink.com 1.10,2013-06-29 20:27:00,
2013-06-29 16:42:00,68.8,54.0,29.60,North,355,2.0,4.0,59,0.00,,,0.00,weatherlink.com 1.10,2013-06-29 20:42:00,
2013-06-29 16:57:00,68.6,53.0,29.60,NNW,341,0.0,7.0,58,0.00,,,0.00,weatherlink.com 1.10,2013-06-29 20:57:00,
2013-06-29 17:12:00,69.1,52.0,29.60,South,169,0.0,9.0,55,0.00,,,0.00,weatherlink.com 1.10,2013-06-29 21:12:00,
2013-06-29 17:27:00,69.5,50.0,29.60,ENE,74,1.0,6.0,51,0.00,,,0.00,weatherlink.com 1.10,2013-06-29 21:27:00,
2013-06-29 17:42:00,69.3,52.0,29.60,WNW,294,0.0,6.0,55,0.00,,,0.00,weatherlink.com 1.10,2013-06-29 21:42:00,
2013-06-29 17:57:00,69.5,50.0,29.60,ENE,68,1.0,3.0,51,0.00,,,0.00,weatherlink.com 1.10,2013-06-29 21:57:00,
2013-06-29 18:12:00,68.8,50.0,29.60,WNW,290,2.0,5.0,51,0.00,,,0.00,weatherlink.com 1.10,2013-06-29 22:12:00,
2013-06-29 18:27:00,67.9,51.0,29.60,NNW,329,0.0,6.0,55,0.00,,,0.00,weatherlink.com 1.10,2013-06-29 22:27:00,
2013-06-29 18:42:00,67.2,51.0,29.60,NNW,344,4.0,4.0,56,0.00,,,0.00,weatherlink.com 1.10,2013-06-29 22:42:00,
2013-06-29 18:57:00,66.9,51.0,29.61,NE,37,0.0,3.0,56,0.00,,,0.00,weatherlink.com 1.10,2013-06-29 22:57:00,
2013-06-29 19:12:00,66.3,51.0,29.61,ENE,65,0.0,3.0,58,0.00,,,0.00,weatherlink.com 1.10,2013-06-29 23:12:00,
2013-06-29 19:27:00,65.0,50.0,29.61,NE,56,0.0,4.0,59,0.00,,,0.00,weatherlink.com 1.10,2013-06-29 23:27:00,
2013-06-29 19:42:00,63.9,50.0,29.62,ENE,66,0.0,3.0,61,0.00,,,0.00,weatherlink.com 1.10,2013-06-29 23:42:00,
2013-06-29 19:57:00,63.0,51.0,29.62,ENE,66,0.0,1.0,65,0.00,,,0.00,weatherlink.com 1.10,2013-06-29 23:57:00,
2013-06-29 20:12:00,61.9,51.0,29.62,ENE,66,0.0,2.0,68,0.00,,,0.00,weatherlink.com 1.10,2013-06-30 00:12:00,
2013-06-29 20:27:00,61.2,50.0,29.63,ENE,66,0.0,1.0,68,0.00,,,0.00,weatherlink.com 1.10,2013-06-30 00:27:00,
2013-06-29 20:42:00,60.8,52.0,29.62,ENE,66,0.0,2.0,72,0.00,,,0.00,weatherlink.com 1.10,2013-06-30 00:42:00,
2013-06-29 20:57:00,61.4,53.0,29.62,ENE,67,1.0,3.0,75,0.00,,,0.00,weatherlink.com 1.10,2013-06-30 00:57:00,
2013-06-29 21:12:00,60.8,54.0,29.63,ENE,67,0.0,2.0,78,0.00,,,0.00,weatherlink.com 1.10,2013-06-30 01:12:00,
2013-06-29 21:27:00,59.8,53.0,29.63,ENE,67,2.0,2.0,77,0.00,,,0.00,weatherlink.com 1.10,2013-06-30 01:27:00,
2013-06-29 21:42:00,59.3,51.0,29.63,ENE,67,0.0,2.0,74,0.00,,,0.00,weatherlink.com 1.10,2013-06-30 01:42:00,
2013-06-29 21:57:00,59.2,50.0,29.64,ENE,67,0.0,2.0,72,0.00,,,0.00,weatherlink.com 1.10,2013-06-30 01:57:00,
2013-06-29 22:12:00,59.2,51.0,29.64,ENE,67,0.0,2.0,74,0.00,,,0.00,weatherlink.com 1.10,2013-06-30 02:12:00,
2013-06-29 22:27:00,59.0,51.0,29.65,ENE,67,0.0,2.0,76,0.00,,,0.00,weatherlink.com 1.10,2013-06-30 02:27:00,
2013-06-29 22:42:00,58.8,51.0,29.65,ENE,67,0.0,1.0,76,0.00,,,0.00,weatherlink.com 1.10,2013-06-30 02:42:00,
2013-06-29 22:57:00,58.5,51.0,29.65,ENE,67,0.0,0.0,77,0.00,,,0.00,weatherlink.com 1.10,2013-06-30 02:57:00,
2013-06-29 23:12:00,58.4,52.0,29.65,ENE,67,0.0,2.0,78,0.00,,,0.00,weatherlink.com 1.10,2013-06-30 03:12:00,
2013-06-29 23:27:00,58.4,51.0,29.65,ENE,67,0.0,2.0,75,0.00,,,0.00,weatherlink.com 1.10,2013-06-30 03:27:00,
2013-06-29 23:42:00,58.3,50.0,29.64,ENE,67,0.0,2.0,75,0.00,,,0.00,weatherlink.com 1.10,2013-06-30 03:42:00,
2013-06-29 23:57:00,58.5,51.0,29.64,ESE,114,4.0,5.0,76,0.00,,,0.00,weatherlink.com 1.10,2013-06-30 03:57:00,